www.pogodaiklimat.ru

Погода и климат >> Архив погоды >> Боливия >> San Borja


ПОГОДА в San Borja

  • Прогноз погоды в San Borja
  • Монитор погоды в San Borja
  • Климат города

АРХИВ ПОГОДЫ в San Borja

Время (UTC), дата Ветер
(напр.,м/с)
 
Видим.   Явления Облачность Т
(С)
Тd
(С)
f
(%)
Тe
(С)
Тes
(С)
Комфортность P
(гПа)
Po
(гПа)
Тmin
(С)
Tmax
(С)
R
(мм)
R24
(мм)
S
(см)
12 14.04 Ю 6 20 км 5/3 400 м
[Sc Ci fib]
+22.6 +21.1 91 +30 +30 очень
душно
1016.9 984.1 +21.0 37
15 14.04 Ю 5 20 км 8/6 450 м
[Sc diur, vesp Ac trans]
+26.0 +22.8 83 +35 +37 очень
душно
1017.7 995.0
18 14.04 В 3 50 км 9/8 500 м
[Cu Sc Ac trans]
+27.0 +23.2 80 +36 +38 очень
душно
1013.8 991.0
21 14.04 ЮВ 4 50 км 3/3 600 м
[Cu hum]
+28.5 +23.5 74 +39 +40 очень
душно
1012.0 989.0 +29.0
12 15.04 ЮВ 5 50 км 1/1 360 м
[Sc]
+21.9 +20.6 92 +28 +29 душно 1016.1 993.5 +20.4
15 15.04 В 8 50 км 3/3 500 м
[Cu hum]
+26.4 +21.9 76 +34 +36 очень
душно
1017.3 994.5
18 15.04 ЮВ 6 50 км 3/3 600 м
[Cu hum]
+28.3 +22.4 70 +37 +41 очень
душно
1015.6 992.8
21 15.04 В 4 50 км 3/3 600 м
[Cu hum]
+28.2 +21.4 67 +36 +37 очень
душно
1014.1 991.2 +29.2
12 16.04 Ю 2 20 км ясно +22.2 +21.4 95 +29 +31 очень
душно
1018.4 995.7 +19.5
15 16.04 ЮВ 3 20 км 4/4 500 м
[Cu hum]
+28.0 +22.1 70 +36 +44 очень
душно
1018.3 995.8
18 16.04 В 2 50 км 5/5 600 м
[Cu med, cong]
+29.8 +21.7 62 +38 +45 очень
душно
1014.1 991.2
21 16.04 штиль 0 50 км 1/1 600 м
[Cu hum]
+30.6 +23.0 64 +41 +43 опасность
перегрева
1011.9 989.0 +31.5
12 17.04 штиль 0 50 км ясно +23.2 +21.8 92 +31 +35 очень
душно
1013.4 990.4 +20.0
15 17.04 штиль 0 50 км 3/3 600 м
[Cu hum]
+28.6 +23.4 73 +39 +53 опасность
солнечного
удара
1013.5 990.6
18 17.04 штиль 0 20 км 4/4 600 м
[Cu hum]
+31.7 +24.3 65 +44 +56 опасность
перегрева
1012.4 990.1
21 17.04 В 2 20 км 1/1 600 м
[Cu med, cong]
+31.3 +22.6 60 +41 +43 опасность
перегрева
1010.8 988.3 +32.6
12 18.04 штиль 0 20 км 4/0 2000 м
[Ac trans]
+23.5 +22.8 96 +31 +33 очень
душно
1015.2 992.6 +22.2
15 18.04 ЮВ 5 20 км 8/4 500 м
[Cu med, cong Ac lent]
+28.2 +23.4 75 +38 +40 очень
душно
1016.4 993.9
18 18.04 ЮВ 3 50 км 5/5 600 м
[Cu med, cong]
+29.7 +23.2 68 +40 +46 очень
душно
1012.6 989.8
21 18.04 В 4 50 км 4/4 600 м
[Cu med, cong]
+27.7 +22.9 75 +37 +38 очень
душно
1010.9 988.0 +30.4
12 19.04 штиль 0 50 км ясно +23.0 +22.3 96 +31 +34 очень
душно
1013.6 990.8 +21.0
15 19.04 штиль 0 50 км 1/1 600 м
[Cu hum]
+29.7 +23.3 69 +40 +58 опасность
солнечного
удара
1013.8 991.0
18 19.04 СЗ 2 20 км 4/4 600 м
[Cu med, cong]
+32.1 +22.5 57 +42 +51 опасность
перегрева
1012.0 989.7
21 19.04 СЗ 3 20 км 3/3 600 м
[Cu hum]
+31.3 +22.9 61 +41 +42 опасность
перегрева
1009.9 987.5 +33.2
12 20.04 штиль 0 20 км 1/0 2000 м
[Ac trans]
+24.6 +23.8 95 +33 +36 очень
душно
1013.5 990.9 +22.0
15 20.04 СЗ 2 20 км 3/3 500 м
[Cu hum]
+30.1 +23.7 69 +41 +52 опасность
перегрева
1012.8 990.4
18 20.04 СЗ 3 50 км 5/5 600 м
[Cu med, cong]
+32.0 +24.0 63 +44 +51 опасность
перегрева
1010.0 987.0
21 20.04 СЗ 2 50 км 4/4 600 м
[Cu med, cong]
+31.0 +23.5 64 +42 +43 опасность
перегрева
1007.6 984.5 +33.0

 

Местоположение метеостанции San Borja (Боливия): широта -14.86 долгота -66.86 высота над уровнем моря 194 м.

В архиве по умолчанию представлена погода в San Borja за последнюю неделю. Архивные данные за месяц целиком и за предыдущие месяцы, начиная с января 2011 года, Вы можете получить, выбрав интересующий диапазон дат из раскрывающегося списка и нажав кнопку "Ввод!".


*Определитесь, кто Вы:
робот инопланетянин человек

Внимание! Время в таблицах - всемирное. Для получения местного времени необходимо прибавить поправку, которая в San Borja равна -4 ч.

Смотрите также архив погоды в соседних городах и на ближайших метеорологических станциях:

Погода в Santa Rosa (Боливия) (77 км)
Погода в Reyes (Боливия) (83 км)
Погода в Rurrenabaque (Боливия) (87 км)
Погода в San Ignacio De Moxo (Боливия) (136 км)
Погода в Santa Ana (Боливия) (197 км)
Погода в Baures (Боливия) (197 км)
Погода в Trinidad (Боливия) (210 км)
Погода в Ovejuyo (Боливия) (224 км)
Погода в La Paz (Боливия) (232 км)
Погода в San Ramon (Боливия) (291 км)

Пояснения к столбцам:

Ветер - указаны скорость ветра в м/с - средняя за 10 мин, порывы в срок и между сроками (в фигурных скобках) и направление, откуда дует ветер: С - северный, СВ - северо-восточный, В - восточный, ЮВ - юго-восточный, Ю - южный, ЮЗ - юго-западный, З - западный, СЗ - северо-западный.
Видимость - горизонтальная дальность видимости в метрах или километрах. При видимости от 1 до 10 км при отсутствии осадков обычно наблюдается дымка, при ухудшении видимости до 1 км и менее - туман. В сухую погоду видимость может ухудшаться дымом, пылью или мглою.
Явления - указаны атмосферные явления, наблюдавшиеся в срок или в последний час перед сроком; фигурными скобками обозначены явления, наблюдавшиеся между сроками (за 1-3 часа до срока); квадратными скобками обозначены град или гололедные отложения с указанием их диаметра в мм.
Облачность - указаны через наклонную черту общая и нижняя облачность в баллах и высота нижней границы облаков в метрах; квадратными скобками обозначены формы облаков: Ci - перистые, Cs - перисто-слоистые, Cc - перисто-кучевые, Ac - высококучевые, As - высокослоистые, Sc - слоисто-кучевые, Ns - слоисто-дождевые, Cu - кучевые, Cb - кучево-дождевые. Подробнее классификацию облаков см. в Атласе облаков (PDF).
T - Температура воздуха - температура, измеренная на высоте 2 м над землей.
Td - Температура точки росы - температура, при понижении до которой содержащийся в воздухе водяной пар достигнет насыщения.
f - Относительная влажность воздуха - влажноcть воздуха, измеренная на высоте 2 м над землей.
Te - Эффективная температура - температура, которую ощущает одетый по сезону человек в тени. Характеристика душности погоды. При расчете учитывается влияние влажности воздуха и скорости ветра на теплоощущения человека.
Tes - Эффективная температура на солнце - температура, которую ощущает человек, с поправкой на солнечный нагрев. Характеристика знойности погоды. Зависит от высоты солнца над горизонтом, облачности и скорости ветра. Ночью, в пасмурную погоду, а также при ветре 12 м/с и более поправка равна нулю.
P - Атмосферное давление - приведенное к уровню моря атмосферное давление.
Po - Атмосферное давление - измеренное на уровне метеостанции атмосферное давление.
Tmin - Минимальная температура - минимум температуры воздуха на высоте 2 м над землей.
Tmax - Максимальная температура - максимум температуры воздуха на высоте 2 м над землей.
R - Количество осадков - Количество выпавших осадков за период времени, мм. При наведении курсора мыши на число - период времени, за который выпало указанное количество осадков.
R24 - Количество осадков - Количество выпавших осадков за 24 часа, мм.
S - Снежный покров - Высота снежного покрова, см. При наведении курсора мыши на число - состояние снежного покрова и степень покрытия местности в баллах.